Wind_Speed
4 2 4 5 3 3 4 2 3 4 2 2 3 3 5 6 7 6 7 4 7 5 7 7 12 17 20 19 18 24 24 18 20 21 22 25 26 26 25 26 26 28 30 29 26 24 22 21 23 22 20 17 16 16 15 14 16 15 15 19 21 23 25 19 19 22 22 34 44 43 42 43 42 40 38 39 41 42 43 42 41 41 40 40 40 40
2 2 6 6 2 5 5 4 4 2 1 1 2 4 5 5 8 7 4 3 7 4 7 9 14 19 19 18 17 19 16 13 15 14 17 21 22 23 25 26 28 28 28 27 26 26 23 23 25 25 23 19 17 17 15 14 14 14 14 17 19 20 23 20 20 24 23 28 39 43 44 45 43 42 41 39 39 40 41 42 41 41 40 38 40 43
3 5 6 3 4 6 5 5 4 1 1 2 3 3 5 4 5 5 1 4 6 4 8 12 14 18 20 18 16 14 10 12 18 15 15 17 17 19 21 23 26 26 26 25 24 23 23 25 26 27 25 20 18 18 16 15 14 14 13 14 17 18 20 21 21 24 23 23 31 38 42 44 44 44 44 43 41 39 39 42 43 42 42 39 40 43
3 4 3 5 5 5 4 4 3 1 2 3 4 3 5 2 2 3 1 6 8 5 8 11 13 15 16 12 10 11 11 12 16 15 14 16 16 18 18 19 20 19 21 22 21 20 21 24 25 26 24 20 18 19 18 16 16 16 14 12 15 17 18 21 22 24 24 22 24 29 34 39 42 43 45 46 45 41 38 40 43 42 41 39 39 41
3 2 6 6 3 4 4 4 4 3 3 5 7 5 6 2 2 2 4 9 9 5 4 8 10 9 6 4 6 8 7 7 9 11 13 15 15 17 17 18 19 18 17 17 18 18 18 21 23 22 21 19 18 19 19 17 17 17 17 15 14 16 19 21 22 24 26 25 24 28 31 33 37 41 44 47 48 47 41 40 42 41 38 36 38 40
7 4 10 6 3 4 4 4 6 5 3 4 5 3 2 2 3 2 6 7 6 3 2 8 7 6 4 4 8 7 3 5 7 7 10 14 13 13 15 16 17 18 18 17 16 17 18 19 20 21 20 20 19 19 19 18 18 18 18 18 16 17 19 21 22 23 26 28 27 30 33 33 34 36 40 43 45 46 45 42 41 40 37 35 38 38
2 5 7 5 5 6 5 4 6 7 3 3 2 2 3 3 3 3 4 4 3 4 4 4 0 6 8 8 9 6 4 7 7 5 8 13 11 9 12 12 12 14 16 17 18 19 20 19 19 21 22 22 20 18 19 19 19 19 19 19 18 18 19 20 22 22 24 28 29 30 32 34 34 34 35 38 40 42 43 42 40 39 38 37 38 37
2 5 4 5 6 5 5 4 6 8 4 3 1 3 3 2 2 2 2 2 3 6 8 3 5 3 7 9 8 5 4 7 7 6 7 10 10 8 8 9 10 10 10 13 17 19 21 21 21 21 22 22 20 18 19 21 21 21 20 20 20 20 20 20 21 22 23 26 29 30 31 31 33 35 36 37 38 41 43 43 41 39 39 40 40 38
1 6 5 6 6 4 5 4 6 9 4 1 2 2 2 2 2 1 1 3 4 5 6 3 6 1 6 8 7 2 2 7 7 7 7 9 10 7 6 8 8 8 8 10 12 15 17 19 20 21 21 21 20 18 18 21 23 22 22 22 22 22 23 23 23 23 23 24 26 27 28 29 30 34 38 39 40 42 45 44 41 41 42 42 41 37
1 2 1 4 5 4 4 0 1 6 4 2 2 1 1 2 2 1 0 2 3 3 3 4 5 2 5 7 6 2 1 4 7 7 7 10 13 9 7 7 6 7 8 9 10 12 13 15 16 18 20 20 21 20 19 20 23 25 25 24 24 24 25 26 26 26 26 25 26 26 26 27 29 33 38 40 42 44 45 44 41 40 42 40 38 37
1 1 3 3 4 1 3 4 5 4 4 3 1 3 3 3 2 2 2 0 2 3 3 4 5 3 3 7 5 3 3 3 4 5 4 7 11 9 6 6 6 7 9 9 9 9 10 11 11 13 16 18 20 22 22 22 23 25 27 27 26 25 25 26 27 28 29 28 28 28 28 28 29 32 35 38 42 45 47 45 42 42 43 40 37 36
1 1 1 3 4 3 5 3 2 4 4 3 2 2 3 1 2 1 1 2 0 3 3 3 2 2 3 7 5 4 5 6 5 5 5 5 4 3 4 6 7 8 8 9 8 8 8 9 9 10 11 13 15 19 22 22 23 24 27 28 29 29 28 27 27 28 30 30 30 30 31 31 30 32 34 36 39 44 46 44 40 42 46 45 40 37
3 4 2 2 2 5 4 3 2 1 3 4 3 1 1 0 0 1 1 2 3 3 2 3 1 1 6 10 10 11 13 11 8 7 5 3 2 1 2 4 6 8 9 9 9 8 9 9 9 9 9 10 12 15 18 19 19 21 25 28 30 31 31 30 29 29 30 31 31 31 32 34 33 33 35 36 36 40 44 43 40 43 48 47 40 37
2 3 2 3 1 7 9 5 3 2 4 6 4 3 3 2 2 3 2 2 3 2 3 4 2 3 6 8 11 14 14 12 10 8 4 2 2 2 3 4 4 7 8 8 8 7 8 9 9 10 10 11 12 13 15 16 16 17 20 25 29 32 33 33 33 31 31 31 32 31 31 35 37 36 36 37 36 37 40 41 38 39 46 49 46 43
4 3 5 6 2 9 12 6 2 3 6 6 4 3 2 2 3 3 2 2 3 2 2 3 2 4 4 3 7 8 7 8 8 5 4 4 3 3 3 4 4 5 5 5 6 7 8 8 9 10 10 11 12 13 13 14 15 16 17 19 23 28 32 35 36 36 34 33 33 32 32 34 38 39 39 38 37 37 38 38 34 33 39 45 47 49
3 3 3 3 2 9 11 6 2 3 5 5 2 3 0 2 2 1 1 2 1 2 1 3 3 5 5 7 11 8 5 6 6 5 7 7 6 5 5 6 5 5 5 6 8 9 9 9 10 10 11 12 12 12 13 14 15 17 19 20 21 23 26 30 34 37 38 37 35 34 34 35 37 40 42 42 41 41 41 39 36 34 35 38 40 44
2 1 1 1 0 4 5 4 1 2 3 3 2 2 2 2 2 2 1 1 3 1 3 4 4 5 3 9 10 5 4 5 6 6 7 9 10 9 9 9 8 8 8 9 10 9 9 10 11 12 12 13 15 16 18 19 20 21 21 23 24 24 24 26 30 33 37 40 39 37 37 37 37 40 43 45 44 44 44 43 40 38 39 41 41 43
4 1 2 1 1 3 3 3 2 1 1 3 2 3 1 2 3 2 0 2 1 3 4 4 6 6 2 4 4 2 4 6 6 7 7 9 12 13 13 13 11 9 9 10 10 10 10 11 12 14 15 16 18 20 23 24 25 26 26 26 26 28 28 27 28 30 33 37 41 41 40 39 39 39 41 45 46 45 45 45 45 44 44 46 46 47
3 2 2 3 1 2 1 3 1 1 1 2 2 2 2 2 0 2 2 1 2 4 4 4 7 6 4 4 3 3 7 8 8 8 7 8 9 12 14 15 12 11 10 11 11 11 12 12 14 15 17 19 20 21 24 26 27 28 29 28 28 29 31 30 30 30 31 34 38 42 42 41 41 40 41 43 45 45 45 45 44 44 43 45 47 51
1 2 2 3 2 4 2 1 3 3 3 1 3 2 1 1 2 2 2 1 2 2 4 3 3 4 5 6 6 7 8 8 8 8 8 7 9 13 15 14 12 10 10 11 12 13 14 14 15 17 18 20 22 22 22 23 25 28 30 30 29 30 31 32 33 32 33 33 35 38 41 42 42 42 42 43 43 45 46 45 43 42 41 41 43 48
1 3 2 1 2 4 2 5 7 8 7 4 2 2 3 1 2 0 1 1 2 2 2 3 5 6 4 3 6 7 6 5 7 7 7 6 8 11 11 9 9 11 12 14 15 16 17 17 18 18 19 20 20 21 22 22 25 28 30 32 31 31 31 33 35 35 35 35 35 36 39 42 43 43 43 43 42 43 44 44 44 42 41 40 40 42
2 3 4 3 4 5 5 6 7 7 9 9 6 6 7 5 4 1 3 3 3 2 2 2 5 9 5 3 5 5 2 0 4 6 4 5 5 6 7 11 15 16 16 17 17 18 19 19 20 20 19 20 20 23 25 27 30 31 33 34 33 32 33 33 35 36 36 36 36 36 37 40 42 43 45 46 45 45 44 44 44 43 42 40 40 41
2 1 3 3 5 6 4 2 2 0 3 6 6 5 6 6 5 5 4 3 2 2 1 1 3 8 4 3 3 3 4 4 6 6 3 3 6 9 13 17 18 16 17 18 18 19 20 21 21 21 20 21 21 23 25 28 30 31 32 33 33 33 35 34 34 35 36 37 38 38 37 38 41 43 44 47 49 49 48 46 45 45 44 42 42 42
3 1 3 3 2 1 1 3 4 4 2 2 6 7 7 7 8 6 3 2 2 3 3 2 4 8 2 3 4 4 6 5 3 4 7 9 11 13 16 17 16 15 16 17 18 20 21 21 21 21 21 21 22 23 24 25 27 29 31 32 33 34 34 34 33 33 34 36 37 38 38 38 40 42 44 46 48 50 50 50 48 46 45 44 45 44
6 2 4 4 2 1 0 1 2 1 2 3 4 7 9 10 10 5 2 2 1 6 8 5 8 7 0 2 4 5 5 4 6 10 10 9 13 18 17 14 12 13 14 16 19 20 21 21 20 21 21 22 22 23 24 25 26 28 31 33 34 35 35 34 34 33 33 35 36 37 39 40 40 42 43 45 47 48 49 50 50 48 47 46 46 47
7 3 6 7 6 7 5 3 3 3 4 4 5 10 12 12 13 8 2 3 5 7 10 10 12 7 2 3 4 5 6 5 6 8 9 15 19 17 13 9 11 14 16 18 20 20 20 19 20 21 21 22 23 24 24 25 26 27 29 30 31 32 33 33 34 34 34 34 36 37 39 40 41 42 42 43 45 47 48 50 50 49 48 47 47 47
3 2 8 9 9 8 4 3 3 6 7 6 9 14 13 13 14 9 4 6 7 6 9 14 15 12 12 12 10 9 8 7 9 10 13 17 16 12 11 13 16 18 20 20 20 19 19 19 20 21 21 22 24 25 25 25 25 25 26 26 26 25 27 29 31 34 34 34 35 37 39 40 41 42 42 41 42 45 47 49 50 50 48 47 47 47
1 4 8 10 11 9 3 4 5 7 7 8 9 13 14 14 15 13 11 9 6 6 11 12 12 17 20 16 14 15 14 12 11 9 10 13 14 17 19 20 20 21 21 20 19 18 18 19 19 20 22 23 24 25 25 24 23 23 24 23 23 22 24 27 29 32 33 34 35 37 39 40 41 41 41 39 40 42 45 48 49 50 49 46 46 46
1 5 7 8 12 11 5 5 6 6 4 5 8 12 14 16 17 18 19 14 10 12 12 6 11 19 19 16 16 15 11 9 10 12 15 18 21 24 23 21 20 21 21 20 19 19 19 19 19 20 23 24 25 25 24 23 22 22 23 23 23 23 24 26 29 31 32 33 35 36 38 39 40 41 39 37 38 40 43 46 48 49 47 46 45 45
2 4 6 8 10 11 10 9 7 6 6 7 9 11 13 17 20 21 20 18 18 21 17 12 16 20 17 15 17 17 13 12 15 20 23 25 26 25 23 21 20 20 20 20 20 21 20 19 20 22 24 25 25 24 23 22 22 22 22 22 23 24 24 26 29 31 32 33 34 35 35 37 39 39 37 36 36 38 41 44 46 47 46 46 45 44
4 3 6 7 7 8 10 10 9 9 10 11 12 12 14 16 19 20 19 16 17 20 20 19 22 22 18 15 16 22 23 19 18 20 22 24 25 24 23 22 19 18 19 21 22 22 20 20 22 23 24 25 24 23 22 21 21 22 22 21 21 22 24 27 29 30 31 33 34 34 33 35 37 36 35 34 34 35 39 42 44 46 45 44 43 43
5 3 2 4 6 7 7 9 11 10 9 14 18 18 19 18 16 16 15 14 17 19 18 18 19 19 16 11 11 17 20 16 14 15 16 20 21 21 22 21 18 17 20 23 23 21 19 20 22 23 24 24 23 21 21 21 21 21 21 20 19 19 21 25 28 29 30 31 33 33 32 33 35 35 34 33 33 34 37 40 42 44 44 43 43 43
7 5 2 4 6 4 5 7 6 2 5 14 16 17 20 20 17 15 15 17 20 18 14 15 17 16 13 9 10 15 15 13 13 15 16 18 19 19 20 18 17 19 22 23 22 19 18 19 20 21 21 22 21 20 20 20 21 21 20 18 17 17 18 21 25 28 29 31 32 32 31 31 32 32 32 32 31 33 36 38 41 43 43 43 42 41
8 8 4 5 4 1 3 6 4 2 9 10 5 13 21 22 20 20 21 21 21 18 16 17 17 16 14 12 14 16 16 16 18 19 21 20 18 18 18 18 20 23 24 22 19 16 16 17 17 18 19 20 19 19 19 19 20 19 18 17 16 16 17 18 21 24 25 27 29 30 30 30 29 28 28 28 30 33 36 37 39 40 41 42 42 41
10 8 6 5 3 1 2 5 3 9 11 4 2 10 18 20 21 23 24 22 21 20 21 22 21 20 18 18 18 19 23 27 27 25 26 25 23 23 24 26 28 27 22 17 14 14 14 14 15 16 16 17 17 17 18 19 19 18 17 16 16 17 18 17 18 19 20 22 26 28 29 28 27 27 27 28 30 33 35 36 37 38 39 40 40 41
11 9 5 5 4 2 3 6 8 7 6 5 4 3 7 10 13 15 17 17 19 20 20 21 22 21 20 20 23 28 32 31 27 28 32 31 29 28 29 31 30 23 16 14 13 14 13 12 13 14 15 15 15 16 17 18 18 18 16 16 16 16 17 17 17 18 19 22 25 28 29 28 28 28 28 28 31 33 34 36 37 37 38 39 38 39
12 10 6 5 6 4 4 8 8 8 13 13 9 4 5 7 8 9 10 12 15 17 17 17 19 21 20 21 26 31 29 20 14 22 33 31 29 31 30 26 21 15 13 13 13 13 12 11 12 13 14 14 14 14 15 16 17 17 16 16 16 16 16 17 18 18 19 21 25 28 29 29 29 29 29 30 31 33 34 35 36 37 38 38 37 38
11 11 9 7 7 6 5 6 6 8 12 9 6 10 11 9 8 7 5 9 10 14 17 17 20 23 20 19 21 18 14 9 5 15 28 28 23 23 20 15 13 12 12 13 12 12 11 11 11 12 13 14 14 14 14 15 15 15 15 16 17 16 17 19 20 20 20 21 23 26 27 28 28 28 29 31 32 33 34 35 34 35 35 35 35 36
11 9 9 8 6 7 8 7 8 10 8 2 6 8 10 12 10 7 3 9 9 14 19 19 19 21 17 14 14 8 4 5 7 13 25 26 18 13 11 11 13 13 12 13 12 11 10 10 11 12 13 14 14 13 13 14 15 14 15 16 17 18 18 20 22 22 22 22 23 25 27 27 27 28 29 31 32 33 33 33 33 33 32 32 32 34
11 8 8 9 9 9 9 8 8 8 4 3 6 6 11 17 13 6 4 10 6 9 16 15 14 18 16 12 10 7 6 9 9 12 21 21 14 12 13 13 14 13 13 13 12 12 11 11 11 12 13 14 14 13 14 14 14 15 15 15 18 20 20 20 21 22 22 23 23 24 26 27 28 28 29 31 32 32 31 31 31 31 32 32 32 32
9 8 8 10 10 9 10 9 8 7 3 5 6 9 14 14 9 3 8 7 4 6 11 14 15 18 17 13 10 9 14 19 14 11 13 13 13 15 15 13 12 11 11 13 13 14 14 13 13 13 14 14 14 14 14 15 15 15 15 15 18 20 19 19 20 21 22 23 23 24 25 26 27 28 29 29 30 30 30 30 31 31 31 32 31 31
8 7 7 8 9 9 10 8 7 7 6 11 12 15 16 10 3 8 6 4 7 10 11 13 15 17 16 16 16 17 20 20 16 12 10 13 16 14 12 10 7 6 10 14 16 17 17 17 17 16 15 15 15 16 15 15 16 15 15 16 17 17 17 18 18 20 21 23 24 24 24 25 26 27 28 29 29 29 30 30 31 31 30 30 30 30
10 9 7 9 9 6 6 7 7 8 10 22 19 11 10 8 7 7 3 4 7 11 11 11 12 12 12 14 17 20 17 13 15 16 13 14 13 10 9 7 6 10 13 15 16 18 19 20 20 19 17 16 17 18 17 17 17 16 16 17 16 15 16 17 18 18 20 23 24 25 25 25 25 26 28 30 30 30 30 30 31 31 31 30 30 32
9 10 7 8 9 7 7 11 9 4 10 29 24 9 15 27 20 5 2 5 8 10 11 11 9 9 10 9 12 16 15 13 16 19 18 16 13 9 7 8 11 15 17 18 18 18 19 20 21 21 21 19 18 19 20 19 18 18 17 16 14 15 16 16 17 18 19 21 24 25 26 26 25 24 26 29 30 30 31 31 32 32 32 32 33 33
13 15 10 7 9 10 9 10 6 2 8 28 29 15 22 42 38 15 4 6 9 9 9 8 7 6 6 7 8 11 14 16 17 19 21 20 14 10 10 13 17 20 21 21 19 19 18 18 19 20 22 22 20 21 22 22 20 19 17 14 13 16 16 14 15 17 18 20 23 25 26 26 25 24 24 27 31 32 33 33 32 33 33 34 34 35
14 17 10 3 5 9 10 10 6 3 5 20 29 23 21 30 34 26 19 16 12 9 6 5 7 7 5 7 9 10 12 15 17 18 19 17 13 13 14 18 22 23 23 21 19 17 17 17 17 19 21 22 22 22 24 24 23 19 17 14 15 16 16 15 15 16 16 19 21 23 25 26 26 25 24 27 30 33 33 33 33 34 35 35 36 36
10 16 13 6 6 8 9 11 13 15 13 15 24 28 26 26 27 27 30 31 26 21 17 14 13 12 10 10 11 12 14 16 17 19 18 16 16 18 20 24 26 24 22 19 17 16 16 16 16 17 17 18 19 20 22 24 24 21 18 17 17 16 16 16 16 15 16 17 19 22 24 26 27 25 25 28 31 32 33 34 34 34 36 37 38 37
11 16 14 11 10 10 10 10 14 21 25 24 25 26 27 30 30 30 33 35 31 29 29 27 24 22 20 19 19 20 21 21 21 22 22 23 23 25 26 28 27 23 20 18 17 17 17 17 16 16 15 15 15 17 19 21 21 20 19 18 18 17 17 18 17 16 16 16 18 21 24 26 27 25 25 26 29 30 32 33 34 36 38 39 40 40
10 12 11 10 11 11 11 9 8 10 16 25 32 35 34 34 36 38 39 35 29 29 32 34 32 30 28 28 28 26 24 25 26 27 28 30 30 30 29 28 24 20 19 18 18 18 19 19 18 17 16 15 14 15 17 18 18 19 18 18 18 18 18 18 18 17 17 17 18 20 22 25 27 27 26 26 27 27 28 29 31 34 36 36 35 34
8 9 9 8 9 9 11 13 12 8 8 15 27 37 41 40 39 41 39 33 30 34 37 38 37 35 34 34 34 31 29 30 31 31 32 32 31 30 27 24 21 20 20 19 19 20 20 21 21 19 18 17 16 17 18 18 17 18 17 17 18 19 20 19 19 19 19 19 20 20 21 24 26 28 28 28 29 29 29 28 29 29 30 30 28 28
11 12 12 10 11 12 15 21 20 14 11 14 19 28 37 40 40 40 38 33 33 38 40 40 40 38 36 36 35 34 33 32 31 31 32 31 28 25 24 22 21 21 20 19 20 20 21 22 22 21 20 18 16 17 19 18 18 18 18 17 18 19 20 20 21 21 21 21 21 21 21 23 25 26 28 29 30 31 31 31 31 30 29 29 28 28
Wind_Direction
210 222 220 225 226 170 142 132 79 62 43 331 314 281 274 281 276 278 286 324 31 342 275 271 278 278 283 284 285 290 290 280 271 267 266 265 264 264 261 256 253 251 252 254 253 252 252 255 261 265 273 278 274 270 268 266 263 263 261 248 239 237 237 241 233 218 204 202 205 205 204 205 205 199 196 202 207 209 211 214 215 215 214 211 211 211
198 223 234 234 183 112 106 95 90 87 61 289 273 277 276 268 268 276 289 18 48 359 282 292 289 282 284 283 283 286 287 274 264 261 260 263 263 260 259 258 256 254 252 254 254 252 249 248 255 261 268 273 271 267 263 263 263 257 257 252 243 238 237 237 230 225 221 208 205 207 208 207 207 206 203 203 206 208 211 214 214 216 217 216 215 211
217 241 233 193 115 105 103 98 101 161 236 233 237 264 271 260 284 292 347 35 21 332 291 304 299 289 286 283 281 277 267 261 262 260 261 269 272 265 260 258 257 254 248 247 251 251 245 244 251 259 265 269 266 264 260 255 258 254 251 249 246 242 233 230 228 225 225 218 208 205 206 208 209 210 209 209 210 208 208 214 215 216 217 219 219 212
205 235 178 119 120 118 115 124 129 207 220 225 225 233 265 299 10 286 308 350 331 282 278 302 298 287 283 280 278 264 246 253 263 265 269 272 274 271 266 262 262 259 247 240 243 245 241 240 246 255 263 267 260 258 258 252 252 253 251 247 244 243 234 228 227 227 225 222 217 210 205 207 209 211 213 213 213 212 210 213 217 219 218 220 220 212
245 188 128 114 146 151 146 162 167 209 233 218 210 218 253 284 85 249 305 326 311 274 270 319 309 287 278 275 292 280 246 249 266 273 278 275 271 269 266 262 262 263 254 242 236 234 233 237 245 255 262 263 255 252 254 251 248 248 249 250 245 242 237 231 227 229 226 218 219 221 212 206 204 205 210 212 213 216 217 216 218 220 219 217 215 212
259 170 141 144 171 169 179 193 182 195 250 239 214 218 244 89 80 311 319 329 320 299 48 28 348 289 294 302 297 297 259 266 280 275 273 273 269 259 257 258 258 258 253 244 233 226 226 232 243 251 257 260 256 251 251 251 248 245 244 245 244 241 237 232 228 227 225 217 215 221 219 214 208 202 204 210 214 218 220 220 221 221 218 212 208 210
241 147 150 169 178 178 194 222 204 188 206 259 250 43 52 69 53 323 335 350 325 290 309 26 59 272 307 303 280 265 251 278 289 280 272 269 259 239 242 249 252 256 252 243 238 233 229 229 235 245 253 259 260 253 248 248 247 245 243 241 239 238 234 229 226 225 224 219 214 218 223 225 223 216 212 215 220 223 224 225 225 224 222 215 208 208
138 156 178 184 180 186 197 226 214 185 186 235 228 37 37 32 345 334 2 317 267 290 296 252 172 250 299 284 268 245 261 298 297 277 270 260 241 221 227 234 234 246 250 243 242 241 238 232 230 239 249 257 260 255 245 243 244 245 245 243 237 233 230 226 224 224 225 223 218 217 222 228 229 227 224 224 225 225 225 226 228 230 228 221 212 208
86 161 181 179 183 204 208 221 197 181 185 185 144 82 44 7 310 328 8 272 279 313 303 196 150 216 273 273 291 294 281 303 289 261 254 249 237 231 250 246 225 225 237 238 240 243 242 237 232 234 243 253 258 255 246 239 240 241 243 244 240 234 230 228 229 230 227 225 223 220 220 224 227 227 227 227 226 224 222 221 223 230 231 222 214 210
32 165 186 181 193 214 202 308 135 167 167 168 147 72 337 254 245 135 135 276 300 301 265 188 157 219 273 275 295 330 250 265 263 252 235 232 235 243 273 266 226 214 227 232 236 241 243 242 238 234 236 244 251 254 249 241 237 237 239 242 243 240 235 233 233 234 233 229 226 224 220 220 222 224 225 226 225 221 219 218 219 228 233 223 214 212
83 40 350 234 219 179 116 56 30 82 117 151 103 11 298 232 147 125 182 204 332 275 241 199 166 150 289 279 256 211 213 240 262 271 250 232 234 244 266 254 222 215 225 231 232 237 245 249 249 245 240 240 246 252 252 245 239 236 236 238 241 243 242 239 237 236 236 235 232 227 222 219 219 221 223 225 224 219 214 215 217 224 233 230 221 217
174 170 292 232 218 147 115 93 49 68 92 112 82 19 325 323 96 76 185 105 306 251 242 242 210 141 232 260 253 241 278 301 305 283 262 240 225 240 252 235 219 210 219 229 227 226 234 243 250 255 257 251 249 255 258 255 248 241 238 237 239 241 242 242 241 239 238 239 237 231 225 220 217 218 221 222 224 221 216 214 213 217 226 231 227 223
201 215 180 140 208 188 158 121 121 94 109 125 124 109 34 354 281 279 227 179 210 245 255 232 241 245 237 249 258 270 282 285 274 257 244 213 188 226 214 209 210 202 205 218 225 227 227 234 247 252 259 261 258 262 267 268 261 252 246 242 240 241 242 243 242 241 241 241 240 236 229 223 217 216 220 222 224 224 220 216 212 212 219 225 226 228
229 302 186 156 211 201 190 165 163 209 171 161 164 165 174 197 242 253 244 224 222 260 255 219 212 265 269 260 239 243 258 255 245 244 231 156 149 177 174 182 211 214 212 217 224 231 231 232 243 249 253 257 258 262 268 273 272 266 257 250 246 243 242 243 243 242 242 242 242 241 234 226 221 217 218 221 222 222 221 217 214 213 214 220 226 230
218 296 196 176 155 179 189 193 164 137 158 180 181 144 167 188 203 225 217 241 262 289 233 213 221 225 245 272 225 225 250 240 230 220 161 136 158 178 196 209 225 232 225 226 223 218 223 228 233 241 249 252 255 256 260 268 275 276 272 264 257 251 247 245 244 243 243 242 242 242 239 233 228 223 220 220 220 220 219 215 214 214 213 216 223 226
217 280 190 157 131 167 181 200 184 104 149 187 142 92 202 220 192 210 170 178 232 331 253 209 245 229 229 279 275 274 273 227 200 176 154 153 167 174 200 211 214 219 216 226 230 224 227 234 237 241 243 244 246 248 253 265 274 278 278 275 269 263 256 251 248 246 244 243 242 241 240 238 234 229 225 223 222 220 220 219 216 216 215 215 219 220
176 287 184 99 36 192 203 223 213 84 154 164 122 145 220 198 107 91 269 70 92 290 254 195 246 276 279 290 285 264 230 211 187 178 168 168 173 180 200 208 209 212 209 217 232 243 251 255 259 259 256 251 249 252 259 267 274 277 277 274 272 268 264 259 254 250 247 245 244 242 239 238 237 234 231 228 227 224 223 224 224 223 221 217 217 219
137 138 250 216 220 231 286 341 21 17 139 130 154 195 183 46 60 100 244 344 99 253 262 193 233 274 269 287 305 136 186 217 205 192 183 184 184 188 201 208 216 223 220 225 236 248 257 262 268 270 270 269 264 261 263 267 272 275 275 273 269 265 263 262 259 255 251 247 245 243 241 238 236 236 235 232 232 229 226 227 227 229 229 224 222 222
127 116 258 256 197 148 41 20 14 280 139 122 240 234 117 88 302 147 162 247 217 245 279 235 239 251 209 226 262 213 212 211 206 201 192 192 190 195 207 214 223 230 228 230 236 242 251 260 267 270 274 276 274 269 266 265 267 270 273 273 268 262 260 261 261 257 254 250 247 245 243 241 238 235 234 233 233 232 229 227 227 228 231 231 228 223
148 157 245 260 201 122 94 218 195 195 148 98 298 285 121 135 175 177 176 185 183 231 287 288 268 245 214 212 215 216 217 200 193 196 194 194 196 200 208 212 220 235 243 249 252 255 260 263 266 268 271 273 275 274 269 264 264 266 270 273 270 265 260 258 257 256 253 251 248 246 244 242 240 236 233 232 233 232 228 226 226 226 229 231 230 225
117 189 173 230 202 146 169 212 193 181 169 173 210 189 193 167 103 135 256 193 172 200 262 276 281 263 228 214 222 223 235 217 182 175 181 180 182 190 199 218 258 280 279 273 268 266 267 269 272 273 271 269 269 267 263 262 265 268 270 271 269 266 263 259 256 255 254 251 249 246 243 241 240 237 234 231 229 229 229 228 227 226 226 227 226 223
161 190 150 138 197 199 217 209 189 188 180 179 185 184 191 173 132 175 251 225 184 173 206 219 281 276 246 223 246 240 259 322 113 117 121 125 148 189 231 270 289 292 283 276 272 271 273 275 277 278 276 272 266 262 259 260 264 267 266 266 265 264 264 263 259 256 255 253 251 248 245 241 240 237 234 232 229 228 229 231 231 228 224 223 221 220
132 164 160 162 197 213 227 161 115 193 176 181 196 186 181 178 169 183 215 213 180 200 230 118 283 276 246 162 178 146 115 100 100 105 116 191 221 249 272 282 285 283 279 278 277 276 279 280 280 280 279 278 275 271 267 263 263 263 262 261 260 260 262 263 260 257 255 254 253 251 248 243 240 237 234 232 232 232 231 231 232 230 225 219 218 217
115 135 181 174 173 179 4 23 15 12 63 187 216 194 185 197 199 202 197 144 153 205 177 127 239 259 261 146 161 129 119 127 144 186 218 236 257 277 281 280 278 276 276 277 279 282 282 281 281 280 280 283 283 281 276 269 263 260 258 257 256 257 259 259 257 255 253 253 253 252 250 246 241 238 234 231 231 233 233 232 230 230 227 221 218 217
166 162 162 163 174 179 93 328 308 294 197 215 219 202 202 200 199 224 266 101 182 205 176 183 240 245 250 153 173 159 159 178 212 220 228 260 293 294 281 270 268 268 270 277 283 286 284 281 280 280 283 285 286 285 281 274 268 262 259 257 255 255 255 253 252 252 250 250 250 250 249 247 244 240 237 232 230 230 233 233 230 227 226 224 222 220
174 182 171 177 208 216 207 215 212 185 195 221 213 205 207 199 193 200 205 191 220 202 181 209 238 243 268 247 221 201 199 212 231 238 276 301 302 294 281 272 271 273 279 285 287 289 287 285 284 284 285 286 286 287 284 280 276 272 267 263 258 254 251 249 248 248 247 245 246 246 246 245 244 243 240 236 232 229 229 233 233 230 228 227 227 226
175 237 194 200 222 216 195 218 197 135 152 195 205 202 203 201 198 193 187 205 212 211 217 227 238 259 264 252 257 261 253 267 278 282 295 294 290 292 294 291 288 287 289 290 291 293 290 289 291 290 288 289 289 288 286 285 283 279 274 267 260 254 248 245 244 244 243 243 242 243 244 243 243 244 242 238 234 231 228 230 233 232 230 229 229 230
164 236 209 218 232 225 168 155 158 140 166 195 193 196 201 201 198 203 216 212 185 219 243 229 225 250 258 250 252 260 261 268 272 273 279 281 288 296 296 293 290 288 289 290 293 295 295 298 297 292 290 290 291 289 287 287 286 283 278 268 260 253 245 241 241 241 240 240 240 241 242 243 242 242 241 237 234 231 229 228 231 232 231 229 230 231
182 225 208 215 234 238 225 182 167 162 195 204 189 194 199 200 201 209 221 218 201 223 245 225 213 237 250 254 254 252 250 256 266 277 285 289 292 291 289 288 286 284 285 289 297 303 305 306 302 295 294 294 293 292 289 288 288 284 276 267 259 253 244 236 236 237 237 237 239 240 240 239 239 239 239 236 232 230 229 228 230 231 231 230 230 229
221 223 198 207 236 243 238 235 225 218 234 232 218 206 199 203 208 212 219 220 222 235 249 257 255 253 251 255 262 267 269 271 278 285 287 286 286 285 284 282 278 277 281 289 300 309 312 311 306 301 300 300 297 293 290 289 288 284 276 267 259 253 244 235 232 233 235 236 237 238 237 237 237 237 237 237 233 230 229 228 228 230 230 229 229 228
211 212 185 194 239 245 231 242 249 242 247 247 237 224 214 214 216 217 220 219 227 240 247 252 261 263 256 252 265 277 280 279 277 276 273 273 275 276 275 274 270 271 282 293 302 309 313 310 306 305 304 304 300 294 291 290 288 283 277 269 261 252 243 235 232 232 233 236 236 236 236 235 235 236 236 236 234 231 229 227 227 229 230 229 228 227
197 224 155 168 234 240 211 223 241 244 255 258 248 231 221 221 220 221 221 214 220 234 241 245 252 257 257 255 258 268 272 271 266 263 261 261 263 263 262 263 265 271 285 297 303 307 309 305 304 306 307 306 302 296 293 291 287 282 278 273 266 256 242 233 232 232 233 234 235 234 235 236 236 236 235 234 234 231 229 227 226 227 229 229 227 225
183 198 161 166 221 242 179 189 212 223 259 261 247 221 215 222 223 225 228 222 221 226 231 237 242 249 260 262 253 257 258 254 257 260 260 260 259 257 255 256 265 277 287 296 302 304 302 299 302 307 309 309 306 299 295 291 287 284 280 276 269 257 245 235 231 232 233 234 236 238 238 236 234 232 231 232 234 232 228 226 226 227 228 228 228 226
187 191 186 181 201 230 148 131 106 207 244 256 220 181 199 213 214 220 228 226 222 224 231 241 248 255 261 255 249 256 258 256 261 264 263 262 259 260 263 265 271 280 288 294 297 294 291 293 302 308 312 315 311 302 296 292 289 285 279 274 266 253 247 239 231 231 232 233 237 237 233 229 226 224 228 232 232 229 227 226 225 226 227 227 227 226
185 189 188 191 186 176 145 110 144 231 241 270 94 171 195 204 208 219 230 229 226 228 234 244 251 253 254 253 252 256 261 264 267 269 267 264 263 266 270 271 274 280 286 287 284 282 282 290 303 310 315 319 316 308 300 294 290 286 276 270 262 250 246 242 232 229 230 231 233 231 228 226 226 228 233 234 229 225 224 225 224 225 226 226 226 226
175 184 188 187 181 162 150 175 209 251 302 301 264 193 182 196 206 222 238 238 231 231 234 240 248 250 251 256 256 255 260 266 271 271 267 263 262 263 263 267 274 279 278 271 269 275 281 289 299 309 314 318 319 316 308 298 290 285 276 267 259 250 247 243 233 227 226 229 231 231 231 233 233 233 234 230 225 223 223 223 224 224 225 226 226 226
170 178 180 186 195 186 186 209 231 302 311 277 243 174 165 192 189 200 238 242 224 225 232 235 244 249 245 247 251 253 259 268 274 271 267 262 259 260 259 263 271 271 261 260 264 270 278 287 297 306 313 316 318 318 314 307 294 283 273 264 256 250 247 241 235 229 225 227 232 233 234 235 235 234 232 227 223 222 222 222 223 224 225 226 225 225
176 180 177 187 204 190 198 229 240 266 273 255 192 174 188 189 160 156 234 258 220 212 222 223 234 243 241 242 247 248 254 261 262 267 267 263 261 260 256 250 252 250 245 249 257 262 272 286 293 301 309 313 316 316 313 311 303 288 272 261 255 251 246 240 236 232 225 224 230 233 233 233 234 234 231 226 223 222 222 222 222 223 225 226 226 226
188 188 181 191 203 187 201 228 227 233 249 184 143 167 168 160 143 119 286 272 231 210 215 216 226 240 242 241 235 207 182 236 249 261 265 266 264 250 230 221 228 234 235 240 250 259 269 283 291 297 305 309 313 313 308 307 309 297 278 263 255 253 248 242 239 235 229 225 226 231 234 233 233 233 230 227 225 223 223 222 221 221 223 225 227 227
191 188 189 204 208 195 200 221 231 244 255 143 153 158 144 147 139 111 268 263 242 214 213 207 221 240 242 231 208 169 175 217 233 259 267 266 250 214 202 208 215 221 233 243 251 260 268 279 288 295 303 306 308 310 304 301 302 301 292 272 258 256 255 248 242 239 235 230 226 228 233 233 232 232 231 228 226 225 225 224 222 220 221 223 225 226
191 189 196 208 211 204 204 219 246 256 216 149 162 165 148 136 125 178 236 229 184 196 201 194 211 231 233 216 184 187 218 221 224 260 266 238 205 191 193 204 214 227 250 260 264 270 274 280 286 290 298 302 301 302 301 296 293 298 298 282 266 264 265 257 247 239 235 232 228 226 231 233 232 231 230 229 227 226 226 225 222 221 221 222 224 225
184 187 201 206 206 211 211 218 260 267 193 157 163 169 156 139 192 229 214 136 156 193 192 189 204 217 219 211 202 212 227 223 221 242 227 184 177 182 189 200 220 264 285 282 277 276 279 282 284 286 292 296 296 296 297 292 289 292 294 291 286 279 271 262 252 241 234 231 228 223 225 229 230 227 227 227 227 226 226 225 224 223 222 222 223 224
180 175 196 206 197 199 210 206 240 264 186 160 160 164 164 186 232 224 167 115 163 183 180 182 196 203 208 217 220 223 226 218 216 223 204 175 174 185 194 214 266 292 299 298 289 284 284 283 281 281 285 288 292 293 291 288 288 286 289 298 303 290 271 263 256 245 234 230 226 221 221 226 228 226 225 226 226 226 226 224 222 221 220 221 221 221
181 178 194 208 192 178 198 202 209 260 170 166 168 169 189 202 213 209 135 198 192 182 186 191 197 205 213 226 232 226 221 217 218 220 216 215 219 219 227 262 284 290 297 301 295 289 286 281 277 276 277 279 285 289 287 286 285 284 288 301 304 290 275 264 255 247 236 228 224 220 219 223 227 226 224 223 223 224 225 224 221 219 220 221 220 219
193 194 193 205 199 192 210 213 192 63 169 181 186 187 191 204 215 224 218 206 194 190 199 198 200 215 226 236 239 229 223 219 216 216 221 228 235 240 254 275 288 293 297 298 293 289 285 280 276 273 271 272 277 284 286 284 281 283 292 298 293 288 284 269 254 247 237 228 223 219 217 220 223 224 222 221 221 222 223 224 222 221 221 221 220 219
201 200 201 212 202 208 241 257 246 262 216 197 204 209 206 214 225 232 235 231 217 209 219 221 228 244 252 246 244 240 235 231 226 224 225 229 239 252 269 285 293 296 296 295 294 292 288 282 277 273 271 271 273 278 282 281 279 284 292 289 282 284 286 274 258 249 240 231 224 219 217 218 221 223 220 219 222 223 225 226 224 222 222 222 221 220
205 201 208 213 178 186 229 244 230 231 229 211 214 221 223 230 237 238 239 241 238 237 246 253 256 260 258 251 250 254 256 253 246 239 236 240 255 271 285 293 296 296 295 295 296 296 292 287 283 279 278 277 276 278 279 278 279 283 285 280 276 278 279 275 265 254 245 235 226 220 217 216 221 224 221 219 221 222 224 226 226 225 224 223 221 219
197 191 200 213 201 201 227 224 213 224 228 224 225 228 227 233 239 241 244 245 244 244 249 252 256 260 261 260 262 264 265 263 257 252 253 261 271 281 288 292 294 295 294 294 296 296 293 290 288 288 288 287 285 282 279 278 281 281 278 274 272 270 270 271 267 259 251 242 230 222 218 217 220 224 223 222 224 225 227 229 229 228 228 226 222 219
174 176 187 204 208 222 243 233 205 223 234 229 228 229 229 231 234 237 241 244 244 246 249 250 252 255 258 262 265 266 266 265 264 264 266 270 275 281 286 290 293 293 292 294 296 295 292 289 288 289 289 288 287 283 280 281 283 282 277 273 268 264 263 265 264 260 254 246 235 226 220 218 219 222 223 223 225 227 231 235 236 237 237 234 230 229
162 180 186 197 206 215 233 231 217 217 238 229 222 226 230 231 233 237 242 244 244 246 248 250 251 253 256 260 264 264 264 266 270 271 270 271 276 281 286 289 291 290 291 293 292 291 289 288 287 287 285 283 283 280 278 278 278 279 278 272 265 261 260 259 258 257 254 248 241 233 226 221 220 221 223 223 222 223 225 229 235 239 242 243 242 242
190 191 185 196 212 212 217 222 217 216 237 238 223 224 232 233 232 235 240 242 244 247 249 250 251 253 256 260 263 263 264 268 272 272 271 272 278 283 286 287 288 288 290 289 288 288 287 286 286 286 282 280 280 279 278 274 270 269 270 268 264 260 257 256 254 254 254 252 248 241 235 230 226 224 225 225 225 225 224 224 227 229 232 235 237 237
Height
1505 1506 1504 1501 1497 1494 1494 1495 1497 1500 1502 1503 1504 1504 1503 1502 1497 1492 1490 1488 1489 1489 1482 1480 1478 1469 1462 1456 1451 1449 1449 1448 1445 1442 1441 1440 1439 1439 1439 1439 1438 1439 1438 1439 1440 1440 1441 1440 1440 1441 1443 1444 1444 1445 1445 1445 1445 1446 1447 1448 1449 1450 1450 1450 1453 1456 1458 1459 1461 1464 1468 1470 1473 1477 1479 1482 1486 1489 1491 1495 1498 1501 1503 1505 1507 1510
1504 1505 1500 1494 1492 1492 1494 1495 1498 1500 1502 1504 1505 1505 1503 1502 1496 1490 1490 1489 1490 1492 1483 1478 1476 1465 1459 1454 1448 1447 1446 1443 1440 1439 1438 1436 1436 1436 1436 1436 1436 1435 1436 1437 1438 1437 1438 1438 1437 1438 1439 1441 1442 1442 1444 1444 1444 1445 1445 1446 1447 1449 1450 1451 1452 1455 1458 1459 1459 1461 1464 1467 1471 1474 1476 1479 1484 1487 1490 1493 1496 1498 1501 1503 1505 1505
1504 1501 1494 1491 1491 1492 1495 1496 1498 1501 1502 1504 1505 1505 1504 1498 1493 1489 1490 1490 1493 1494 1484 1478 1476 1463 1453 1449 1444 1443 1442 1439 1437 1436 1435 1434 1433 1433 1433 1434 1434 1434 1434 1435 1435 1435 1436 1435 1435 1436 1437 1438 1440 1440 1441 1442 1443 1443 1444 1445 1446 1447 1449 1450 1451 1454 1456 1459 1460 1460 1462 1465 1469 1472 1475 1477 1481 1485 1488 1491 1493 1495 1498 1501 1502 1503
1499 1494 1490 1491 1492 1493 1495 1497 1500 1501 1503 1504 1504 1504 1501 1494 1494 1494 1492 1492 1494 1493 1486 1482 1476 1458 1446 1443 1440 1439 1436 1435 1435 1433 1433 1433 1431 1431 1431 1432 1432 1432 1432 1432 1433 1433 1433 1433 1433 1433 1434 1436 1437 1438 1438 1440 1441 1442 1443 1444 1445 1446 1448 1449 1451 1452 1454 1457 1460 1462 1463 1465 1467 1470 1473 1476 1480 1484 1487 1489 1491 1493 1496 1498 1500 1502
1493 1490 1490 1492 1492 1492 1495 1497 1500 1502 1501 1500 1500 1500 1496 1493 1498 1500 1497 1496 1492 1489 1486 1483 1472 1450 1439 1440 1436 1435 1434 1432 1433 1432 1431 1430 1429 1429 1429 1430 1430 1430 1430 1430 1431 1431 1431 1430 1430 1431 1433 1433 1434 1436 1436 1438 1439 1440 1441 1443 1444 1445 1446 1448 1449 1451 1453 1455 1459 1462 1464 1465 1467 1468 1470 1473 1477 1481 1484 1487 1489 1491 1494 1496 1498 1501
1490 1489 1489 1492 1493 1493 1495 1496 1498 1500 1499 1495 1494 1495 1495 1494 1499 1501 1500 1499 1494 1488 1484 1487 1481 1452 1435 1439 1437 1433 1433 1432 1432 1432 1430 1428 1427 1427 1427 1427 1428 1428 1429 1429 1429 1430 1430 1428 1428 1429 1430 1431 1432 1433 1435 1436 1437 1438 1439 1441 1442 1444 1445 1446 1448 1450 1452 1454 1456 1460 1462 1464 1466 1467 1468 1471 1475 1478 1481 1485 1488 1490 1493 1495 1497 1499
1488 1488 1489 1490 1492 1493 1495 1496 1494 1496 1498 1495 1492 1494 1495 1495 1499 1500 1501 1503 1500 1491 1483 1489 1494 1473 1446 1439 1436 1432 1432 1431 1430 1430 1429 1427 1426 1425 1425 1425 1426 1427 1427 1427 1428 1428 1429 1428 1427 1427 1427 1428 1430 1431 1434 1435 1436 1437 1438 1439 1441 1442 1444 1445 1446 1448 1450 1452 1454 1457 1460 1461 1464 1466 1468 1470 1474 1478 1481 1484 1487 1489 1491 1493 1494 1497
1487 1489 1490 1490 1491 1493 1495 1494 1491 1492 1496 1494 1493 1496 1495 1496 1499 1500 1502 1506 1503 1496 1488 1484 1491 1490 1471 1444 1432 1431 1429 1427 1428 1428 1427 1426 1425 1424 1424 1423 1423 1425 1425 1426 1426 1427 1427 1427 1427 1426 1426 1426 1428 1429 1431 1433 1434 1435 1436 1437 1439 1441 1442 1444 1445 1447 1448 1450 1452 1454 1457 1459 1462 1464 1466 1468 1470 1475 1479 1483 1487 1489 1490 1491 1492 1494
1487 1489 1490 1490 1492 1493 1491 1489 1486 1488 1492 1494 1495 1496 1495 1498 1499 1499 1503 1505 1503 1500 1492 1482 1485 1491 1475 1443 1429 1429 1428 1426 1425 1425 1426 1425 1424 1423 1422 1422 1422 1423 1424 1425 1425 1425 1425 1426 1426 1426 1426 1425 1426 1427 1429 1430 1432 1434 1435 1436 1437 1439 1440 1442 1444 1445 1447 1449 1450 1452 1454 1456 1459 1462 1464 1465 1466 1468 1473 1479 1484 1487 1488 1488 1489 1491
1489 1489 1489 1490 1491 1490 1487 1485 1485 1486 1490 1494 1495 1495 1496 1498 1498 1501 1504 1504 1505 1502 1490 1482 1485 1487 1466 1437 1430 1430 1426 1425 1423 1421 1423 1422 1422 1422 1421 1422 1421 1422 1423 1424 1424 1424 1424 1424 1425 1425 1425 1425 1425 1425 1427 1428 1430 1431 1432 1434 1435 1436 1438 1440 1442 1443 1445 1447 1448 1450 1452 1453 1456 1457 1459 1461 1462 1463 1467 1474 1480 1484 1485 1486 1488 1489
1489 1490 1491 1489 1487 1486 1486 1487 1488 1488 1491 1493 1494 1496 1497 1496 1499 1502 1501 1504 1505 1495 1486 1485 1486 1486 1468 1435 1425 1426 1420 1420 1420 1419 1420 1420 1420 1420 1420 1420 1420 1421 1421 1422 1423 1423 1424 1424 1424 1424 1424 1425 1424 1424 1425 1426 1427 1429 1430 1432 1433 1434 1436 1438 1440 1441 1442 1444 1445 1447 1449 1451 1452 1453 1455 1456 1459 1460 1461 1465 1473 1480 1484 1485 1487 1488
1490 1491 1489 1487 1485 1485 1486 1489 1489 1490 1491 1492 1495 1497 1494 1493 1499 1501 1502 1507 1498 1477 1481 1493 1489 1489 1476 1439 1420 1420 1416 1416 1419 1418 1417 1418 1419 1419 1419 1419 1419 1420 1420 1421 1422 1422 1423 1423 1423 1424 1424 1424 1424 1423 1423 1424 1426 1427 1428 1430 1431 1432 1433 1435 1437 1438 1440 1441 1442 1444 1446 1448 1449 1450 1452 1453 1455 1458 1458 1459 1464 1473 1480 1483 1484 1486
1487 1488 1485 1484 1485 1484 1485 1489 1491 1492 1492 1493 1497 1499 1494 1489 1488 1490 1491 1490 1482 1476 1487 1497 1491 1483 1467 1439 1424 1421 1417 1417 1416 1415 1415 1415 1417 1417 1418 1419 1418 1419 1419 1419 1421 1421 1421 1422 1422 1423 1423 1424 1424 1423 1423 1423 1424 1425 1426 1428 1429 1430 1431 1432 1434 1435 1437 1438 1439 1441 1443 1444 1446 1447 1449 1451 1452 1455 1458 1458 1458 1463 1471 1477 1480 1482
1480 1483 1485 1484 1483 1482 1482 1485 1488 1490 1492 1494 1494 1494 1491 1483 1475 1474 1471 1462 1462 1477 1493 1498 1492 1474 1449 1428 1421 1418 1415 1414 1413 1412 1412 1412 1415 1416 1417 1418 1418 1418 1418 1418 1419 1419 1420 1421 1421 1421 1422 1422 1423 1422 1423 1422 1423 1424 1424 1425 1426 1427 1429 1429 1431 1432 1434 1435 1436 1438 1440 1442 1443 1444 1446 1448 1450 1453 1455 1457 1457 1458 1462 1468 1473 1477
1465 1467 1475 1480 1478 1477 1478 1478 1479 1481 1486 1489 1486 1485 1485 1479 1471 1468 1467 1463 1462 1471 1488 1499 1484 1455 1432 1415 1410 1411 1411 1410 1410 1410 1410 1411 1413 1415 1416 1418 1418 1418 1418 1418 1418 1418 1419 1419 1419 1420 1420 1420 1421 1421 1421 1422 1422 1422 1422 1423 1424 1425 1426 1426 1428 1429 1430 1432 1433 1435 1437 1439 1440 1442 1443 1445 1447 1450 1452 1454 1455 1456 1458 1462 1466 1471
1458 1457 1468 1476 1474 1474 1476 1475 1475 1477 1483 1484 1482 1485 1484 1477 1472 1471 1473 1477 1480 1478 1483 1489 1469 1438 1424 1411 1404 1407 1408 1408 1409 1408 1409 1410 1411 1413 1414 1416 1416 1416 1416 1416 1417 1417 1417 1418 1418 1418 1419 1419 1419 1419 1420 1420 1421 1421 1421 1421 1421 1422 1423 1423 1424 1426 1427 1428 1430 1432 1434 1435 1437 1438 1440 1442 1444 1446 1449 1451 1452 1454 1457 1459 1461 1465
1458 1463 1475 1478 1475 1477 1476 1475 1476 1475 1478 1481 1481 1483 1480 1476 1475 1475 1477 1478 1484 1481 1468 1462 1451 1433 1424 1412 1402 1404 1406 1407 1408 1407 1408 1409 1409 1411 1412 1413 1414 1414 1415 1415 1415 1415 1416 1416 1416 1417 1417 1418 1418 1418 1418 1418 1418 1419 1419 1419 1419 1420 1420 1420 1421 1422 1423 1425 1426 1428 1429 1431 1433 1435 1436 1438 1440 1443 1446 1448 1450 1452 1453 1455 1456 1458
1450 1464 1479 1480 1476 1478 1476 1475 1477 1475 1476 1479 1480 1479 1476 1477 1477 1477 1481 1479 1480 1477 1456 1442 1438 1429 1424 1415 1403 1403 1406 1406 1406 1406 1407 1407 1407 1408 1408 1410 1411 1411 1413 1413 1413 1414 1414 1414 1414 1414 1415 1415 1415 1415 1415 1415 1415 1416 1416 1416 1417 1417 1417 1418 1418 1419 1420 1420 1422 1423 1425 1427 1428 1431 1433 1435 1437 1439 1441 1443 1445 1448 1449 1451 1453 1454
1444 1456 1475 1481 1477 1477 1477 1477 1477 1476 1478 1478 1478 1478 1475 1476 1477 1478 1482 1477 1472 1469 1450 1435 1430 1425 1422 1415 1405 1404 1405 1404 1404 1404 1405 1405 1405 1406 1406 1408 1409 1409 1410 1410 1411 1412 1411 1412 1412 1412 1412 1412 1412 1412 1412 1412 1412 1412 1412 1413 1413 1413 1414 1415 1415 1415 1416 1416 1417 1419 1421 1423 1424 1427 1429 1431 1433 1435 1437 1439 1441 1443 1446 1448 1450 1451
1444 1448 1465 1479 1478 1477 1479 1479 1476 1474 1478 1481 1479 1478 1476 1473 1474 1475 1475 1469 1465 1464 1452 1438 1430 1420 1413 1407 1402 1401 1400 1399 1402 1402 1402 1403 1404 1405 1406 1407 1408 1408 1408 1408 1409 1409 1409 1410 1409 1409 1409 1409 1409 1409 1408 1409 1408 1408 1409 1409 1409 1410 1410 1411 1411 1411 1412 1412 1413 1415 1416 1419 1420 1422 1424 1427 1429 1431 1433 1435 1437 1439 1442 1444 1446 1447
1448 1445 1457 1476 1478 1476 1476 1470 1466 1464 1470 1478 1479 1477 1476 1475 1474 1473 1472 1466 1463 1464 1458 1450 1436 1415 1403 1399 1398 1397 1395 1395 1398 1399 1401 1402 1402 1404 1405 1406 1407 1407 1407 1407 1407 1407 1407 1407 1407 1406 1407 1406 1406 1406 1406 1405 1405 1404 1404 1404 1405 1406 1406 1406 1406 1407 1408 1408 1409 1410 1412 1414 1416 1418 1420 1422 1425 1427 1430 1432 1434 1435 1438 1440 1441 1443
1447 1443 1453 1475 1479 1471 1464 1457 1455 1457 1458 1464 1468 1468 1468 1470 1471 1472 1470 1463 1461 1461 1456 1455 1446 1416 1397 1395 1394 1394 1396 1395 1395 1397 1399 1400 1401 1403 1404 1404 1405 1404 1405 1405 1405 1405 1404 1403 1403 1403 1403 1403 1403 1403 1403 1403 1402 1401 1400 1400 1400 1401 1401 1402 1402 1403 1404 1405 1406 1406 1407 1409 1411 1414 1416 1418 1420 1423 1426 1428 1430 1432 1434 1435 1437 1439
1443 1442 1449 1466 1468 1462 1457 1454 1455 1456 1454 1456 1459 1459 1461 1464 1463 1463 1462 1457 1460 1459 1452 1460 1455 1416 1391 1393 1393 1393 1395 1395 1396 1398 1399 1400 1400 1401 1401 1401 1402 1401 1402 1402 1402 1402 1401 1400 1400 1399 1399 1399 1399 1399 1399 1399 1398 1397 1397 1396 1396 1396 1396 1397 1398 1399 1400 1400 1401 1403 1404 1405 1407 1409 1411 1413 1416 1418 1421 1424 1426 1428 1430 1432 1434 1435
1443 1443 1445 1451 1455 1457 1457 1456 1455 1455 1455 1456 1455 1453 1456 1458 1454 1453 1453 1453 1458 1456 1451 1463 1453 1410 1389 1393 1392 1392 1394 1395 1397 1397 1398 1399 1398 1398 1399 1398 1398 1399 1399 1400 1399 1399 1398 1397 1397 1396 1395 1395 1394 1394 1394 1393 1394 1393 1393 1393 1392 1392 1392 1393 1394 1395 1396 1396 1397 1398 1400 1401 1403 1404 1406 1408 1411 1413 1416 1418 1421 1424 1427 1428 1430 1432
1437 1439 1441 1444 1451 1458 1460 1460 1459 1458 1457 1454 1450 1449 1449 1450 1452 1453 1452 1455 1457 1448 1445 1454 1436 1399 1390 1394 1391 1392 1394 1393 1395 1395 1395 1397 1396 1396 1396 1395 1396 1397 1397 1397 1397 1396 1395 1394 1393 1392 1392 1391 1390 1389 1389 1388 1389 1388 1388 1389 1388 1388 1389 1389 1390 1391 1391 1392 1392 1393 1394 1396 1398 1399 1401 1403 1406 1409 1411 1413 1415 1419 1423 1425 1428 1430
1428 1429 1431 1436 1440 1443 1446 1447 1446 1448 1452 1451 1446 1445 1444 1445 1449 1450 1452 1457 1455 1443 1438 1436 1414 1392 1391 1393 1390 1392 1392 1391 1393 1393 1393 1395 1395 1394 1394 1394 1395 1394 1394 1395 1393 1393 1392 1390 1390 1389 1388 1387 1386 1385 1384 1383 1383 1383 1382 1383 1383 1384 1384 1385 1386 1387 1387 1388 1388 1388 1389 1391 1392 1394 1396 1399 1401 1404 1406 1408 1410 1413 1418 1421 1425 1427
1426 1424 1422 1423 1422 1420 1423 1427 1428 1432 1441 1443 1440 1439 1440 1441 1442 1445 1449 1448 1444 1440 1431 1416 1405 1398 1395 1393 1392 1391 1390 1392 1392 1392 1393 1393 1393 1393 1393 1392 1393 1392 1392 1391 1390 1390 1388 1387 1387 1385 1384 1384 1382 1381 1380 1378 1378 1377 1377 1377 1378 1379 1380 1381 1382 1382 1383 1383 1384 1384 1385 1386 1388 1389 1392 1394 1397 1400 1402 1404 1406 1408 1412 1416 1420 1424
1425 1425 1421 1418 1417 1415 1417 1422 1424 1427 1431 1432 1433 1435 1437 1437 1439 1442 1440 1433 1434 1438 1421 1403 1406 1405 1391 1389 1393 1391 1389 1392 1392 1391 1392 1391 1391 1391 1390 1390 1390 1389 1388 1388 1387 1386 1385 1384 1383 1382 1381 1380 1378 1377 1376 1374 1373 1372 1372 1372 1373 1375 1376 1377 1378 1378 1379 1379 1380 1381 1382 1383 1385 1386 1388 1390 1393 1396 1398 1401 1403 1404 1407 1411 1415 1419
1423 1423 1419 1419 1419 1416 1418 1421 1422 1423 1425 1425 1427 1430 1431 1433 1434 1433 1430 1426 1427 1424 1407 1397 1403 1398 1386 1386 1387 1385 1388 1391 1389 1389 1389 1388 1388 1388 1387 1387 1386 1385 1385 1384 1383 1382 1381 1381 1379 1378 1378 1376 1375 1373 1372 1370 1369 1368 1368 1368 1369 1371 1372 1373 1374 1375 1375 1376 1377 1378 1379 1381 1382 1383 1385 1387 1389 1391 1394 1397 1399 1401 1404 1407 1410 1414
1421 1419 1417 1419 1420 1418 1418 1420 1419 1422 1424 1422 1421 1423 1424 1426 1426 1423 1422 1422 1419 1412 1403 1401 1401 1390 1382 1383 1380 1379 1385 1389 1387 1387 1386 1385 1385 1384 1384 1384 1382 1382 1382 1380 1380 1379 1378 1377 1376 1375 1374 1372 1371 1370 1368 1367 1366 1365 1365 1365 1365 1367 1368 1369 1371 1371 1372 1372 1373 1375 1377 1378 1379 1381 1382 1384 1386 1388 1390 1393 1396 1398 1400 1403 1406 1410
1420 1418 1415 1416 1421 1420 1417 1418 1419 1420 1421 1419 1418 1418 1417 1418 1419 1417 1415 1417 1416 1410 1405 1406 1402 1385 1374 1378 1381 1378 1381 1384 1385 1384 1383 1382 1381 1381 1380 1379 1378 1378 1378 1377 1376 1376 1375 1374 1373 1372 1371 1369 1368 1367 1365 1364 1362 1361 1361 1361 1362 1363 1365 1366 1367 1367 1368 1369 1370 1372 1374 1375 1377 1378 1380 1381 1383 1385 1387 1389 1392 1394 1397 1400 1403 1406
1419 1418 1414 1417 1423 1419 1415 1419 1419 1417 1420 1419 1412 1409 1411 1410 1408 1407 1407 1408 1408 1404 1404 1406 1398 1377 1366 1375 1383 1378 1376 1379 1379 1377 1378 1377 1377 1377 1376 1375 1375 1374 1374 1374 1373 1373 1372 1372 1371 1369 1368 1366 1365 1364 1363 1361 1359 1358 1357 1357 1358 1359 1361 1363 1364 1365 1365 1366 1367 1369 1370 1372 1374 1375 1377 1379 1381 1383 1385 1387 1389 1391 1394 1397 1399 1402
1414 1416 1416 1419 1421 1416 1413 1416 1416 1420 1425 1410 1390 1390 1399 1400 1399 1401 1399 1396 1395 1395 1397 1393 1379 1366 1366 1375 1378 1374 1373 1374 1372 1372 1373 1373 1373 1373 1372 1371 1372 1371 1371 1371 1370 1370 1370 1369 1368 1367 1365 1364 1362 1361 1360 1359 1357 1355 1354 1354 1355 1356 1358 1360 1361 1362 1362 1363 1364 1365 1367 1369 1371 1373 1375 1376 1378 1380 1382 1384 1386 1388 1391 1393 1396 1399
1410 1412 1415 1415 1417 1419 1417 1415 1419 1425 1415 1384 1365 1373 1384 1386 1390 1392 1387 1384 1385 1385 1382 1374 1365 1365 1369 1370 1369 1368 1366 1366 1367 1368 1368 1368 1369 1369 1368 1368 1369 1368 1368 1368 1367 1368 1368 1367 1366 1365 1363 1362 1360 1359 1358 1356 1355 1353 1352 1351 1352 1353 1355 1356 1358 1359 1359 1360 1361 1363 1365 1367 1368 1371 1373 1374 1375 1377 1379 1381 1383 1385 1388 1391 1394 1395
1407 1411 1413 1411 1414 1420 1420 1421 1424 1414 1388 1367 1364 1368 1370 1373 1379 1379 1375 1375 1378 1377 1374 1369 1365 1364 1364 1362 1362 1362 1359 1359 1363 1364 1364 1365 1365 1365 1364 1364 1364 1364 1364 1365 1365 1365 1365 1365 1364 1362 1361 1359 1358 1357 1356 1354 1353 1352 1350 1349 1349 1350 1352 1353 1355 1356 1356 1357 1359 1360 1362 1364 1366 1369 1371 1372 1373 1374 1376 1379 1381 1383 1386 1389 1391 1393
1400 1406 1408 1409 1412 1417 1422 1421 1408 1383 1366 1367 1371 1367 1367 1372 1375 1377 1375 1371 1370 1369 1368 1366 1362 1359 1360 1358 1356 1356 1356 1357 1359 1358 1358 1359 1360 1360 1361 1359 1359 1361 1361 1362 1363 1363 1363 1362 1361 1360 1359 1357 1355 1354 1353 1352 1351 1350 1349 1348 1347 1348 1349 1350 1351 1352 1354 1355 1356 1358 1360 1362 1364 1366 1368 1370 1371 1372 1374 1376 1378 1381 1384 1386 1390 1392
1393 1399 1403 1407 1406 1406 1413 1408 1392 1379 1370 1363 1361 1364 1366 1366 1368 1373 1372 1362 1358 1361 1361 1360 1358 1354 1353 1351 1349 1351 1354 1357 1357 1352 1349 1352 1354 1354 1355 1355 1356 1358 1358 1359 1360 1360 1360 1360 1359 1358 1356 1354 1353 1352 1351 1350 1350 1348 1347 1346 1345 1346 1347 1348 1348 1349 1350 1352 1354 1356 1358 1359 1362 1364 1365 1367 1368 1369 1371 1373 1376 1379 1382 1385 1388 1390
1387 1390 1395 1401 1398 1398 1404 1402 1398 1396 1377 1353 1349 1356 1359 1359 1361 1367 1366 1355 1349 1351 1351 1350 1349 1345 1343 1344 1346 1349 1353 1357 1355 1346 1341 1346 1349 1348 1350 1351 1353 1355 1356 1357 1357 1357 1357 1357 1356 1356 1354 1352 1351 1350 1349 1348 1347 1346 1346 1345 1344 1344 1344 1345 1346 1347 1348 1349 1351 1353 1355 1357 1359 1361 1363 1364 1366 1367 1369 1371 1374 1376 1380 1383 1385 1387
1385 1386 1389 1394 1394 1395 1399 1398 1392 1383 1362 1347 1348 1351 1354 1358 1360 1365 1368 1355 1338 1336 1338 1339 1339 1338 1337 1340 1343 1347 1353 1355 1350 1340 1336 1341 1344 1344 1346 1349 1351 1353 1354 1354 1355 1355 1355 1355 1354 1353 1352 1350 1349 1348 1347 1346 1345 1344 1344 1343 1343 1342 1341 1342 1343 1344 1346 1347 1349 1352 1354 1355 1357 1359 1360 1362 1364 1366 1367 1369 1372 1374 1378 1381 1383 1385
1384 1385 1388 1390 1387 1386 1392 1390 1379 1364 1352 1349 1351 1352 1354 1355 1357 1367 1369 1346 1326 1326 1330 1332 1335 1334 1333 1336 1340 1344 1346 1346 1341 1337 1335 1337 1340 1342 1345 1347 1349 1351 1352 1352 1353 1353 1352 1352 1352 1351 1350 1349 1347 1346 1345 1344 1343 1342 1342 1342 1341 1340 1339 1339 1341 1342 1344 1345 1347 1349 1351 1353 1355 1356 1358 1360 1362 1364 1366 1368 1370 1373 1375 1378 1381 1383
1382 1382 1383 1383 1382 1382 1384 1381 1370 1355 1347 1350 1352 1351 1352 1355 1361 1364 1349 1327 1321 1326 1326 1327 1331 1330 1329 1333 1336 1337 1336 1334 1335 1336 1335 1336 1338 1340 1343 1346 1348 1349 1350 1351 1351 1351 1350 1350 1349 1349 1348 1347 1345 1344 1343 1342 1341 1340 1340 1339 1339 1337 1337 1338 1339 1340 1342 1343 1344 1346 1348 1350 1352 1354 1356 1358 1360 1363 1365 1367 1369 1370 1373 1375 1378 1380
1377 1379 1379 1378 1378 1378 1374 1375 1374 1356 1339 1342 1351 1350 1350 1354 1355 1343 1323 1316 1322 1324 1322 1325 1326 1326 1328 1330 1330 1331 1331 1331 1334 1336 1336 1335 1336 1339 1342 1343 1345 1347 1348 1348 1348 1348 1348 1347 1347 1347 1345 1345 1343 1342 1341 1340 1339 1338 1338 1337 1336 1336 1336 1336 1337 1338 1339 1340 1341 1343 1344 1347 1350 1351 1354 1356 1358 1361 1363 1365 1367 1368 1370 1373 1375 1377
1358 1367 1373 1369 1367 1371 1373 1377 1376 1351 1326 1329 1343 1348 1346 1342 1332 1320 1315 1318 1321 1320 1321 1324 1323 1324 1327 1327 1327 1329 1330 1331 1334 1335 1335 1335 1336 1338 1340 1340 1342 1344 1344 1345 1345 1345 1345 1344 1344 1344 1343 1342 1341 1340 1339 1338 1337 1336 1335 1335 1335 1335 1335 1335 1335 1336 1337 1338 1339 1340 1342 1344 1346 1349 1351 1353 1356 1358 1360 1362 1364 1366 1368 1370 1371 1373
1349 1354 1359 1353 1351 1360 1365 1359 1345 1325 1315 1320 1325 1324 1324 1319 1312 1312 1316 1318 1318 1320 1321 1322 1321 1323 1324 1324 1326 1328 1329 1331 1333 1333 1334 1335 1335 1336 1338 1338 1339 1340 1340 1341 1341 1340 1340 1340 1340 1340 1340 1340 1339 1338 1337 1336 1335 1334 1333 1333 1333 1334 1333 1333 1333 1333 1334 1335 1336 1338 1339 1340 1343 1346 1348 1350 1352 1355 1357 1359 1361 1363 1365 1366 1368 1370
1335 1331 1333 1333 1332 1335 1333 1325 1318 1315 1317 1318 1312 1309 1311 1311 1310 1314 1316 1316 1318 1320 1319 1320 1322 1322 1322 1323 1325 1326 1327 1329 1330 1331 1333 1333 1333 1335 1336 1336 1338 1338 1337 1338 1337 1336 1336 1336 1336 1336 1336 1336 1336 1335 1334 1334 1333 1332 1332 1331 1332 1331 1331 1332 1332 1331 1332 1333 1334 1335 1337 1338 1340 1342 1344 1347 1349 1351 1354 1356 1358 1360 1361 1363 1365 1366
1319 1320 1322 1323 1325 1325 1320 1316 1317 1319 1318 1316 1314 1313 1314 1314 1313 1315 1316 1316 1318 1318 1318 1320 1321 1320 1322 1323 1323 1324 1326 1327 1327 1329 1330 1330 1331 1333 1333 1334 1335 1335 1334 1334 1333 1333 1333 1332 1332 1332 1332 1332 1333 1332 1332 1331 1330 1330 1330 1330 1329 1329 1329 1330 1330 1330 1330 1330 1331 1333 1334 1336 1337 1338 1341 1344 1346 1348 1350 1352 1354 1356 1358 1360 1362 1363
1316 1319 1320 1318 1319 1323 1319 1313 1313 1315 1315 1315 1316 1314 1313 1314 1315 1315 1315 1314 1315 1317 1318 1318 1319 1319 1320 1320 1321 1323 1324 1325 1326 1327 1327 1328 1329 1329 1330 1331 1331 1331 1331 1331 1330 1330 1329 1329 1328 1328 1328 1329 1330 1329 1329 1329 1328 1328 1328 1328 1327 1327 1327 1327 1327 1328 1328 1328 1329 1330 1332 1333 1334 1335 1337 1340 1342 1344 1347 1349 1351 1353 1354 1355 1357 1359
1310 1312 1315 1314 1312 1311 1307 1303 1305 1308 1309 1311 1313 1311 1311 1313 1313 1313 1312 1311 1312 1315 1316 1316 1317 1317 1317 1317 1319 1320 1321 1323 1324 1324 1325 1325 1326 1326 1327 1327 1327 1327 1327 1327 1327 1327 1326 1325 1325 1325 1325 1326 1326 1326 1326 1326 1325 1326 1326 1325 1325 1325 1324 1325 1325 1326 1326 1327 1327 1328 1329 1330 1331 1333 1335 1337 1338 1341 1343 1345 1347 1348 1349 1351 1353 1355
1300 1304 1307 1307 1306 1305 1302 1300 1303 1306 1306 1306 1305 1304 1305 1307 1308 1307 1307 1308 1310 1312 1313 1313 1314 1314 1314 1315 1316 1316 1317 1319 1320 1321 1322 1321 1322 1322 1323 1323 1323 1324 1324 1324 1324 1323 1322 1322 1321 1321 1321 1322 1323 1323 1323 1323 1323 1323 1323 1323 1323 1322 1322 1322 1322 1323 1324 1325 1325 1326 1327 1328 1329 1330 1332 1334 1336 1338 1340 1341 1344 1345 1346 1349 1351 1354
1295 1299 1301 1302 1303 1302 1297 1293 1296 1300 1297 1294 1295 1297 1299 1301 1302 1302 1303 1306 1309 1309 1309 1309 1309 1310 1311 1312 1312 1313 1314 1314 1316 1317 1317 1317 1318 1319 1319 1319 1320 1320 1320 1321 1321 1320 1319 1319 1318 1317 1318 1318 1319 1319 1319 1320 1320 1320 1320 1320 1320 1320 1320 1320 1320 1321 1322 1322 1323 1324 1324 1325 1327 1328 1329 1331 1333 1334 1336 1338 1340 1342 1344 1346 1349 1353
1285 1287 1289 1290 1290 1288 1284 1281 1286 1289 1285 1282 1288 1293 1293 1294 1297 1298 1300 1304 1305 1304 1305 1305 1304 1305 1307 1307 1308 1310 1310 1310 1312 1312 1312 1313 1314 1315 1315 1316 1316 1316 1317 1317 1317 1316 1316 1315 1315 1314 1314 1314 1315 1315 1315 1316 1316 1316 1316 1317 1316 1317 1317 1317 1317 1318 1318 1319 1320 1321 1322 1323 1324 1325 1327 1328 1330 1332 1333 1335 1337 1338 1341 1344 1347 1350